| time (UTC) | temp F | wind direction | speed knots | gust knots | rain 1hr in | rain 24hr in | rain mn in | humidity % | barometer mb |
| 20260507230036 | 52 | 0 | 0.9 | 6.1 | 0.00 | 0.19 | 0.00 | 37 | 1006.2 |
| 20260507224535 | 53 | 11 | 0.9 | 6.1 | 0.00 | 0.21 | 0.00 | 36 | 1006.1 |
| 20260507223034 | 53 | 1 | 0.9 | 7.0 | 0.00 | 0.21 | 0.00 | 38 | 1006.0 |
| 20260507221535 | 53 | 198 | 2.6 | 8.7 | 0.00 | 0.21 | 0.00 | 35 | 1005.9 |
| 20260507220037 | 53 | 0 | 0.9 | 7.8 | 0.00 | 0.21 | 0.00 | 36 | 1005.8 |
| 20260507214534 | 53 | 5 | 1.7 | 11.3 | 0.00 | 0.44 | 0.00 | 38 | 1005.9 |
| 20260507213038 | 52 | 348 | 0.9 | 7.8 | 0.00 | 0.44 | 0.00 | 38 | 1005.9 |
| 20260507211540 | 53 | 5 | 0.9 | 9.6 | 0.00 | 0.44 | 0.00 | 36 | 1005.8 |
| 20260507210036 | 53 | 0 | 0.9 | 7.8 | 0.00 | 0.44 | 0.00 | 36 | 1005.7 |
| 20260507204538 | 54 | 28 | 0.9 | 5.2 | 0.00 | 0.52 | 0.00 | 35 | 1005.9 |
| 20260507203036 | 55 | 201 | 0.9 | 7.8 | 0.00 | 0.52 | 0.00 | 38 | 1005.6 |
| 20260507201539 | 56 | 53 | 0.9 | 5.2 | 0.00 | 0.52 | 0.00 | 36 | 1005.8 |
| 20260507200037 | 55 | 0 | 0.9 | 7.8 | 0.00 | 0.52 | 0.00 | 37 | 1005.8 |
| 20260507194545 | 53 | 281 | 0.9 | 7.8 | 0.00 | 0.56 | 0.00 | 37 | 1005.9 |
| 20260507193037 | 53 | 165 | 0.9 | 6.1 | 0.00 | 0.56 | 0.00 | 39 | 1006.1 |
| 20260507191535 | 54 | 297 | 1.7 | 7.0 | 0.00 | 0.56 | 0.00 | 37 | 1006.1 |
| 20260507190034 | 54 | 334 | 0.9 | 8.7 | 0.00 | 0.56 | 0.00 | 37 | 1006.2 |
| 20260507184537 | 54 | 156 | 1.7 | 13.0 | 0.00 | 0.62 | 0.00 | 41 | 1006.5 |
| 20260507183042 | 54 | 333 | 2.6 | 7.8 | 0.00 | 0.62 | 0.00 | 39 | 1006.6 |
| 20260507181539 | 55 | 153 | 0.9 | 6.1 | 0.00 | 0.62 | 0.00 | 44 | 1006.6 |
| 20260507180034 | 52 | 113 | 1.7 | 7.8 | 0.00 | 0.62 | 0.00 | 40 | 1006.7 |
| 20260507174536 | 54 | 348 | 0.9 | 7.8 | 0.00 | 0.73 | 0.00 | 41 | 1006.7 |
| 20260507173039 | 54 | 159 | 2.6 | 7.8 | 0.00 | 0.73 | 0.00 | 39 | 1006.6 |
| 20260507171536 | 54 | 348 | 0.9 | 10.4 | 0.00 | 0.73 | 0.00 | 41 | 1006.9 |
| 20260507170035 | 54 | 265 | 1.7 | 8.7 | 0.00 | 0.73 | 0.00 | 42 | 1007.0 |
| 20260507164543 | 53 | 33 | 1.7 | 7.0 | 0.00 | 0.79 | 0.00 | 44 | 1007.2 |
| 20260507163037 | 53 | 339 | 0.0 | 5.2 | 0.00 | 0.79 | 0.00 | 48 | 1007.4 |
| 20260507161542 | 52 | 333 | 1.7 | 5.2 | 0.00 | 0.79 | 0.00 | 46 | 1007.6 |
| 20260507160036 | 52 | 9 | 1.7 | 10.4 | 0.00 | 0.79 | 0.00 | 46 | 1007.8 |
| 20260507154537 | 52 | 272 | 0.9 | 6.1 | 0.00 | 0.80 | 0.00 | 47 | 1008.1 |
| 20260507153035 | 51 | 21 | 0.9 | 5.2 | 0.00 | 0.80 | 0.00 | 50 | 1007.9 |
| 20260507151535 | 51 | 149 | 0.9 | 7.8 | 0.00 | 0.80 | 0.00 | 50 | 1008.0 |
| 20260507150035 | 50 | 357 | 1.7 | 6.1 | 0.00 | 0.80 | 0.00 | 52 | 1008.1 |
| 20260507144537 | 49 | 327 | 1.7 | 5.2 | 0.00 | 0.80 | 0.00 | 57 | 1008.1 |
| 20260507143055 | 49 | 262 | 0.9 | 3.5 | 0.00 | 0.80 | 0.00 | 68 | 1008.2 |
| 20260507142721 | 49 | 348 | 0.9 | 6.1 | 0.00 | 0.77 | 0.00 | 66 | 1008.2 |
| 20260507142205 | 49 | 39 | 0.9 | 6.1 | 0.00 | 0.77 | 0.00 | 67 | 1008.0 |
| 20260507141553 | 48 | 219 | 0.9 | 7.8 | 0.00 | 0.80 | 0.00 | 71 | 1008.0 |
| 20260507141026 | 48 | 207 | 0.9 | 6.1 | 0.00 | 0.77 | 0.00 | 72 | 1008.1 |
| 20260507140513 | 47 | 112 | 0.9 | 4.3 | 0.00 | 0.77 | 0.00 | 78 | 1007.9 |
| 20260507140039 | 46 | 340 | 1.7 | 5.2 | 0.00 | 0.80 | 0.00 | 81 | 1008.0 |
| 20260507140017 | 47 | 353 | 0.9 | 4.3 | 0.00 | 0.77 | 0.00 | 81 | 1008.0 |
| 20260507134844 | 45 | 80 | 0.0 | 3.5 | 0.00 | 0.77 | 0.00 | 89 | 1008.0 |
| 20260507134535 | 44 | 80 | 0.9 | 4.3 | 0.00 | 0.80 | 0.00 | 92 | 1007.8 |
| 20260507134351 | 45 | 83 | 0.0 | 2.6 | 0.00 | 0.77 | 0.00 | 92 | 1007.9 |
| 20260507133852 | 45 | 353 | 0.0 | 0.0 | 0.00 | 0.77 | 0.00 | 94 | 1007.9 |
| 20260507133331 | 44 | 353 | 0.0 | 0.9 | 0.00 | 0.77 | 0.00 | 96 | 1007.8 |
| 20260507133037 | 44 | 348 | 0.0 | 3.5 | 0.00 | 0.80 | 0.00 | 96 | 1007.9 |
| 20260507132832 | 44 | 353 | 0.0 | 0.9 | 0.00 | 0.77 | 0.00 | 96 | 1007.9 |
| 20260507132317 | 44 | 353 | 0.0 | 1.7 | 0.00 | 0.77 | 0.00 | 97 | 1007.9 |
| 20260507131541 | 43 | 0 | 0.0 | 3.5 | 0.00 | 0.80 | 0.00 | 97 | 1008.0 |
| 20260507130041 | 43 | 0 | 0.0 | 1.7 | 0.00 | 0.80 | 0.00 | 97 | 1008.0 |
| 20260507124537 | 44 | 0 | 0.0 | 0.0 | 0.00 | 0.80 | 0.00 | 97 | 1008.0 |
| 20260507123040 | 43 | 0 | 0.0 | 0.0 | 0.00 | 0.80 | 0.00 | 97 | 1008.0 |
| 20260507121542 | 43 | 0 | 0.0 | 0.0 | 0.00 | 0.80 | 0.00 | 97 | 1007.6 |
| 20260507120036 | 42 | 0 | 0.0 | 0.0 | 0.00 | 0.80 | 0.00 | 97 | 1007.8 |
| 20260507114535 | 41 | 0 | 0.0 | 0.0 | 0.00 | 0.80 | 0.00 | 97 | 1007.6 |
| 20260507113037 | 41 | 0 | 0.0 | 0.0 | 0.00 | 0.80 | 0.00 | 97 | 1007.7 |
| 20260507111536 | 39 | 0 | 0.0 | 0.0 | 0.00 | 0.80 | 0.00 | 97 | 1007.6 |
| 20260507110037 | 38 | 0 | 0.0 | 0.0 | 0.00 | 0.80 | 0.00 | 96 | 1007.4 |
| 20260507104537 | 38 | 0 | 0.0 | 0.0 | 0.00 | 0.80 | 0.00 | 96 | 1007.7 |
| 20260507103036 | 37 | 0 | 0.0 | 0.0 | 0.00 | 0.80 | 0.00 | 96 | 1007.6 |
| 20260507101537 | 37 | 0 | 0.0 | 0.0 | 0.00 | 0.80 | 0.00 | 96 | 1007.4 |
| 20260507100046 | 37 | 0 | 0.0 | 0.0 | 0.00 | 0.80 | 0.00 | 95 | 1007.2 |
| 20260507094537 | 38 | 0 | 0.0 | 0.0 | 0.00 | 0.80 | 0.00 | 96 | 1007.5 |
| 20260507093648 | 38 | 336 | 0.0 | 0.0 | 0.00 | 0.77 | 0.00 | 96 | 1007.5 |
| 20260507093037 | 38 | 0 | 0.0 | 0.0 | 0.00 | 0.80 | 0.00 | 96 | 1007.5 |
| 20260507091539 | 38 | 0 | 0.0 | 0.0 | 0.00 | 0.80 | 0.00 | 96 | 1007.7 |
| 20260507090044 | 39 | 0 | 0.0 | 0.0 | 0.00 | 0.80 | 0.00 | 96 | 1007.8 |
| 20260507084548 | 39 | 0 | 0.0 | 0.0 | 0.00 | 0.80 | 0.00 | 96 | 1007.6 |
| 20260507083035 | 39 | 0 | 0.0 | 0.0 | 0.00 | 0.80 | 0.00 | 96 | 1007.6 |
| 20260507081534 | 40 | 0 | 0.0 | 0.0 | 0.00 | 0.80 | 0.00 | 95 | 1007.6 |
| 20260507080041 | 40 | 0 | 0.0 | 0.0 | 0.00 | 0.80 | 0.00 | 96 | 1007.5 |
| 20260507074538 | 41 | 0 | 0.0 | 0.0 | 0.00 | 0.80 | 0.00 | 95 | 1007.7 |
| 20260507073036 | 41 | 0 | 0.0 | 0.0 | 0.00 | 0.80 | 0.00 | 96 | 1007.4 |
| 20260507071537 | 42 | 0 | 0.0 | 0.0 | 0.00 | 0.80 | 0.00 | 96 | 1007.3 |
| 20260507070041 | 42 | 0 | 0.0 | 0.0 | 0.00 | 0.80 | 0.00 | 96 | 1007.2 |
| 20260507064558 | 42 | 0 | 0.0 | 0.0 | 0.00 | 0.80 | 0.00 | 96 | 1006.8 |
| 20260507063037 | 42 | 0 | 0.0 | 0.9 | 0.00 | 0.80 | 0.00 | 96 | 1007.4 |
| 20260507061536 | 42 | 0 | 0.0 | 0.0 | 0.00 | 0.80 | 0.00 | 96 | 1007.3 |
| 20260507060041 | 43 | 0 | 0.0 | 0.0 | 0.00 | 0.80 | 0.00 | 95 | 1007.5 |
| 20260507054536 | 43 | 0 | 0.0 | 0.0 | 0.00 | 0.80 | 0.00 | 96 | 1007.6 |
| 20260507053041 | 43 | 0 | 0.0 | 0.0 | 0.00 | 0.80 | 0.00 | 96 | 1007.9 |
| 20260507051545 | 43 | 0 | 0.0 | 0.0 | 0.00 | 0.80 | 0.00 | 96 | 1007.6 |
| 20260507050044 | 43 | 0 | 0.0 | 0.0 | 0.00 | 0.80 | 0.00 | 95 | 1007.9 |
| 20260507044535 | 43 | 0 | 0.0 | 0.0 | 0.00 | 0.80 | 0.00 | 95 | 1007.3 |
| 20260507043035 | 44 | 0 | 0.0 | 0.0 | 0.00 | 0.80 | 0.00 | 95 | 1007.2 |
| 20260507041537 | 44 | 0 | 0.0 | 0.0 | 0.00 | 0.80 | 0.00 | 95 | 1007.4 |
| 20260507040038 | 44 | 0 | 0.0 | 0.0 | 0.00 | 0.80 | 0.00 | 96 | 1007.6 |
| 20260507034538 | 44 | 0 | 0.0 | 0.9 | 0.01 | 0.80 | 0.80 | 96 | 1007.1 |
| 20260507033035 | 44 | 0 | 0.0 | 0.0 | 0.02 | 0.80 | 0.80 | 95 | 1007.5 |
| 20260507031535 | 44 | 0 | 0.0 | 0.0 | 0.02 | 0.80 | 0.80 | 95 | 1007.5 |
| 20260507030037 | 44 | 0 | 0.0 | 1.7 | 0.04 | 0.80 | 0.80 | 95 | 1007.5 |
| 20260507024535 | 44 | 0 | 0.0 | 1.7 | 0.04 | 0.79 | 0.79 | 95 | 1007.6 |
| 20260507023042 | 44 | 353 | 0.9 | 4.3 | 0.04 | 0.78 | 0.78 | 95 | 1007.9 |
| 20260507021541 | 45 | 343 | 0.0 | 1.7 | 0.06 | 0.78 | 0.78 | 95 | 1007.8 |
| 20260507020036 | 45 | 0 | 0.0 | 1.7 | 0.06 | 0.76 | 0.76 | 95 | 1007.8 |
| 20260507014545 | 45 | 0 | 0.0 | 1.7 | 0.07 | 0.75 | 0.75 | 95 | 1007.8 |
| 20260507013036 | 46 | 0 | 0.0 | 0.0 | 0.08 | 0.74 | 0.74 | 95 | 1007.5 |
| 20260507011539 | 46 | 0 | 0.0 | 1.7 | 0.07 | 0.72 | 0.72 | 95 | 1007.4 |
| 20260507010051 | 46 | 0 | 0.0 | 3.5 | 0.05 | 0.70 | 0.70 | 95 | 1007.2 |
| 20260507004537 | 47 | 0 | 0.0 | 1.7 | 0.03 | 0.68 | 0.68 | 95 | 1006.9 |
| 20260507003035 | 48 | 0 | 0.0 | 1.7 | 0.02 | 0.66 | 0.66 | 95 | 1006.8 |
| 20260507001537 | 48 | 0 | 0.0 | 2.6 | 0.01 | 0.65 | 0.65 | 94 | 1006.5 |
| 20260507000036 | 49 | 0 | 0.0 | 0.9 | 0.03 | 0.65 | 0.65 | 95 | 1006.0 |
| 20260506234534 | 49 | 0 | 0.0 | 0.0 | 0.06 | 0.65 | 0.65 | 95 | 1005.8 |
| 20260506233037 | 49 | 0 | 0.0 | 0.0 | 0.05 | 0.64 | 0.64 | 94 | 1005.5 |
| 20260506231538 | 50 | 0 | 0.0 | 0.0 | 0.05 | 0.64 | 0.64 | 94 | 1005.4 |